Wind_Speed
24 24 22 25 28 29 32 35 39 42 43 42 43 46 44 38 44 49 54 52 47 41 42 37 37 39 39 35 37 39 36 34 35 37 35 31 31 31 30 32 31 28 28 29
25 25 27 28 30 34 38 42 45 47 47 51 50 53 49 44 40 48 51 53 49 44 43 39 36 39 40 35 32 39 37 36 35 34 36 31 32 31 30 32 31 30 31 31
27 30 31 34 38 42 44 46 48 50 51 53 55 55 50 46 44 45 51 50 48 48 44 41 38 39 41 34 33 39 40 38 35 34 34 30 32 31 29 30 34 35 34 34
32 33 37 40 42 43 46 47 49 52 55 56 55 60 51 47 45 46 50 49 46 47 45 42 41 43 42 36 36 39 41 39 35 33 32 32 32 33 30 30 33 36 37 37
34 35 37 40 41 45 48 50 53 55 57 58 56 60 53 48 41 41 47 50 48 46 46 43 39 42 40 37 38 39 40 40 36 34 31 32 33 33 30 31 32 34 37 38
35 38 37 38 42 46 50 52 55 57 58 64 58 62 52 50 44 39 42 48 53 50 47 46 43 45 41 38 40 39 38 39 37 34 32 34 34 33 31 32 32 34 36 38
33 33 36 39 43 46 46 43 48 55 60 65 62 66 53 51 52 45 44 44 53 55 51 49 47 45 42 38 40 39 38 38 37 35 34 34 35 33 32 32 34 35 37 38
31 31 35 35 38 37 34 34 36 40 47 55 57 66 58 56 58 54 47 47 51 55 53 49 47 47 41 39 40 41 40 38 37 35 34 35 34 33 32 33 33 34 36 38
31 32 31 29 29 27 30 39 40 48 47 50 46 42 53 55 56 57 51 46 43 51 52 50 46 43 40 39 41 41 40 39 38 35 35 35 33 32 33 34 35 36 36 38
30 27 22 24 25 31 38 36 40 44 50 54 55 49 36 33 40 38 44 46 48 42 50 48 47 40 39 40 42 43 41 40 40 37 35 34 33 32 34 35 37 38 37 36
22 21 18 24 29 33 34 36 40 40 42 47 48 35 35 27 31 28 27 35 45 51 48 46 44 41 37 40 43 45 41 40 40 36 34 34 34 34 35 37 37 36 35 35
22 23 20 19 24 29 34 33 34 41 39 49 42 31 23 19 27 36 28 36 43 48 49 45 44 39 36 40 43 44 41 39 39 36 35 36 36 35 35 37 35 35 35 37
17 18 20 19 26 31 37 36 38 38 36 42 41 25 24 21 19 34 30 39 43 47 45 43 38 37 37 41 43 41 39 39 38 37 35 37 36 36 36 34 34 35 36 38
13 15 21 26 24 27 36 39 42 37 36 29 37 15 13 14 25 34 26 35 39 42 36 39 37 35 41 44 43 41 40 38 37 36 36 36 36 36 33 33 34 35 38 41
10 16 16 12 19 23 26 26 26 30 24 22 14 7 19 17 24 20 25 35 41 35 32 33 35 36 42 42 40 39 38 37 35 35 34 35 36 33 33 33 34 37 40 42
13 8 7 12 15 22 19 19 13 12 3 14 6 5 11 17 18 27 30 34 42 31 34 36 36 36 39 38 37 35 34 33 33 32 33 33 32 32 32 33 36 39 40 42
4 7 6 11 13 23 20 13 11 13 4 7 9 17 19 28 26 25 27 32 35 26 29 29 29 30 33 34 34 33 30 29 30 30 31 30 29 30 33 35 36 39 41 45
4 7 10 14 20 28 18 12 11 7 14 14 14 19 26 23 20 23 26 27 26 27 28 28 26 27 29 29 26 25 25 25 26 27 27 28 29 31 33 35 38 41 44 47
2 5 8 14 22 22 22 19 18 12 13 12 12 16 17 16 17 22 27 21 17 22 24 25 24 24 23 22 23 23 21 23 24 25 26 27 29 32 34 37 39 43 46 48
0 4 8 11 14 17 18 18 15 15 10 13 16 10 25 21 23 19 18 18 17 21 23 21 19 18 17 17 17 17 19 21 22 24 26 28 31 34 35 39 42 44 46 48
2 1 5 6 9 10 10 10 12 8 12 11 9 13 15 18 22 22 20 19 18 17 17 17 16 16 15 13 14 15 17 20 23 25 27 30 32 35 38 40 41 43 45 49
5 2 4 5 5 6 6 5 4 5 7 9 8 9 10 13 17 16 18 14 12 12 10 8 7 7 10 13 16 18 20 21 23 25 28 32 34 36 37 38 40 44 48 50
7 4 6 7 5 4 6 5 4 4 1 2 2 3 6 8 10 10 13 14 14 11 9 8 9 11 14 15 15 16 18 21 25 27 30 32 33 34 36 39 44 46 47 47
16 13 7 6 5 6 3 5 4 4 4 3 2 4 6 7 7 9 9 10 10 8 8 8 10 12 12 13 15 18 21 23 26 28 30 31 33 35 40 42 44 45 45 47
18 19 12 7 3 2 4 7 4 4 3 2 4 5 5 5 6 6 6 6 6 7 7 9 11 13 14 14 15 18 21 25 27 29 30 32 35 38 40 42 42 44 47 49
21 18 14 10 5 4 4 1 0 0 2 2 2 3 5 5 5 6 5 6 7 9 9 8 9 10 12 14 18 22 25 26 28 29 32 35 36 39 40 40 44 46 48 53
Wind_Direction
246 251 256 259 264 267 270 272 276 279 278 272 271 270 270 262 257 250 245 247 250 255 253 247 243 240 248 244 238 240 242 246 250 251 257 255 251 252 246 248 251 254 258 261
252 257 261 266 270 272 275 277 278 276 273 271 268 266 267 266 261 251 246 244 245 248 249 247 243 242 246 245 241 243 243 245 247 252 251 252 251 254 251 252 252 253 257 261
259 263 266 270 271 273 274 275 273 274 273 275 274 265 264 263 261 252 245 245 242 244 245 246 243 245 247 249 238 238 242 245 247 251 251 252 252 254 253 252 250 251 257 261
264 268 270 272 274 276 275 277 277 275 274 273 270 269 263 259 257 257 246 243 242 243 243 245 244 247 248 249 239 239 241 243 246 250 252 251 254 252 252 254 255 254 257 262
269 268 270 274 278 278 280 278 277 275 274 271 268 269 260 258 256 255 251 243 240 239 241 242 240 246 248 244 239 239 239 242 246 248 251 250 254 253 252 256 256 258 260 263
268 272 277 280 283 282 281 279 277 274 272 269 267 266 257 261 257 247 247 243 240 237 240 241 239 243 242 238 237 238 238 242 245 247 247 247 248 251 252 255 258 260 262 265
270 278 282 284 283 284 286 288 288 282 277 274 269 263 259 254 254 247 243 238 238 235 236 239 239 241 243 234 234 236 237 239 243 245 246 247 247 250 255 256 256 262 265 267
279 283 285 282 283 289 293 297 299 295 288 281 273 262 257 252 248 250 242 239 237 235 232 232 235 236 237 229 227 231 234 236 240 245 248 250 251 253 257 258 260 265 268 271
286 287 278 284 288 292 292 301 296 294 293 292 296 294 269 256 256 251 250 236 235 232 233 230 230 231 231 225 225 226 231 234 239 243 247 251 252 253 257 263 264 267 271 275
281 275 289 282 287 291 296 303 303 297 293 290 289 290 301 263 262 259 258 237 228 227 228 227 226 225 223 218 221 225 229 234 238 243 246 251 253 254 259 265 269 271 273 277
267 284 298 296 292 296 302 301 299 293 294 297 294 294 291 273 246 246 237 229 223 223 223 223 225 223 220 213 217 223 229 234 239 243 247 249 252 256 260 267 273 275 276 280
274 302 303 301 302 303 298 300 297 298 292 301 299 308 295 279 252 241 226 208 211 214 219 218 224 222 217 212 217 221 224 232 240 243 247 250 254 259 264 270 272 275 279 283
289 311 301 302 304 296 290 293 289 293 292 296 295 311 296 248 236 221 221 208 199 203 212 210 214 218 210 210 214 219 223 231 240 244 248 251 254 260 267 270 273 277 281 285
308 309 308 314 316 310 303 308 306 290 283 301 304 307 265 245 216 216 203 197 189 192 199 204 208 208 205 207 212 217 225 231 240 246 248 251 255 264 268 271 276 280 284 286
321 319 322 318 322 313 306 306 299 303 311 294 311 279 170 219 214 197 181 178 179 175 185 195 201 207 205 208 213 221 228 233 242 247 250 253 260 264 269 274 279 281 283 287
328 326 327 338 355 6 11 332 323 347 125 25 30 113 161 163 178 160 166 172 173 178 185 192 198 203 205 210 215 223 231 239 242 245 251 257 260 266 273 277 279 282 286 290
322 320 353 10 12 43 32 6 28 6 55 149 145 138 136 142 146 157 168 168 167 173 184 191 194 199 206 210 217 226 231 233 239 246 252 259 266 270 272 277 281 286 289 292
273 332 9 19 39 52 52 28 53 28 45 116 132 136 142 152 156 159 166 168 168 171 180 190 196 202 207 213 217 224 229 237 245 250 255 260 266 272 277 282 286 289 292 295
352 21 49 34 49 47 52 57 76 76 84 91 110 128 143 149 151 154 166 168 175 177 182 188 195 195 199 206 215 224 230 238 244 253 261 266 272 278 282 285 289 292 295 297
85 22 29 43 58 52 53 62 67 65 73 81 105 130 144 151 165 173 165 178 154 152 168 171 177 186 193 201 213 225 236 246 255 263 268 274 278 282 286 288 291 294 297 299
191 32 32 34 59 66 55 64 72 74 75 93 96 102 130 131 129 143 152 150 152 159 168 176 183 193 204 225 241 250 257 263 267 271 275 279 282 284 287 291 295 297 300 302
238 251 328 357 30 55 69 78 64 77 91 108 118 110 92 111 115 135 147 158 168 174 174 187 207 231 247 254 258 261 262 266 271 275 279 282 284 289 293 296 298 301 303 305
230 254 330 334 350 40 67 97 116 127 147 248 176 159 144 155 167 176 178 179 186 184 193 219 240 252 255 254 256 261 266 271 277 281 284 287 291 294 297 300 301 303 304 303
233 243 273 315 339 354 42 85 133 144 144 166 210 230 227 223 217 202 190 194 204 226 242 249 248 250 254 256 262 271 278 281 285 289 291 294 296 298 300 302 303 303 303 304
240 245 252 277 304 6 103 81 99 74 82 128 169 180 180 185 207 209 211 220 220 232 238 244 250 258 268 276 281 285 289 292 293 295 296 296 298 300 302 302 302 303 305 309
244 249 241 240 222 228 214 147 156 35 310 264 201 192 196 195 199 188 203 222 238 248 257 262 270 281 286 292 294 295 294 295 295 296 297 299 300 303 303 303 305 308 310 311
Height
5689 5693 5695 5694 5696 5698 5699 5700 5702 5703 5703 5703 5705 5707 5709 5713 5714 5716 5720 5725 5729 5732 5733 5737 5739 5741 5743 5748 5752 5754 5757 5760 5761 5763 5765 5765 5766 5767 5768 5768 5769 5770 5771 5770
5683 5686 5687 5688 5689 5689 5690 5690 5692 5691 5689 5688 5692 5696 5696 5700 5704 5707 5709 5712 5718 5722 5723 5727 5730 5732 5734 5738 5743 5746 5749 5751 5753 5755 5758 5759 5759 5760 5761 5763 5763 5763 5763 5764
5676 5679 5679 5679 5679 5679 5680 5679 5678 5677 5676 5676 5676 5681 5687 5689 5690 5693 5697 5701 5706 5711 5714 5717 5721 5724 5727 5731 5734 5736 5740 5743 5746 5748 5750 5752 5753 5754 5755 5755 5755 5756 5757 5757
5669 5670 5670 5670 5670 5668 5668 5668 5665 5664 5661 5663 5664 5660 5673 5677 5681 5681 5685 5689 5696 5699 5703 5707 5712 5714 5718 5723 5726 5728 5732 5736 5738 5740 5742 5745 5746 5746 5747 5748 5748 5749 5749 5749
5661 5661 5661 5660 5659 5657 5658 5655 5652 5650 5648 5647 5651 5644 5661 5663 5671 5673 5673 5676 5681 5687 5690 5695 5700 5704 5709 5713 5717 5720 5723 5728 5731 5733 5734 5737 5738 5739 5740 5740 5740 5741 5741 5740
5652 5651 5652 5651 5648 5645 5642 5641 5637 5633 5631 5626 5636 5629 5646 5648 5655 5659 5660 5661 5666 5672 5677 5682 5688 5692 5697 5702 5707 5711 5715 5720 5723 5726 5728 5730 5731 5732 5733 5733 5733 5734 5733 5732
5644 5644 5642 5640 5636 5632 5630 5626 5622 5617 5612 5611 5615 5608 5630 5634 5634 5642 5645 5647 5648 5654 5662 5669 5676 5682 5687 5693 5698 5703 5706 5711 5715 5717 5720 5722 5723 5725 5726 5726 5726 5726 5725 5724
5635 5637 5633 5629 5626 5624 5621 5617 5613 5602 5598 5595 5593 5587 5606 5616 5615 5620 5628 5630 5633 5638 5648 5656 5663 5670 5677 5684 5689 5694 5698 5703 5707 5709 5712 5714 5716 5717 5718 5718 5718 5718 5717 5716
5626 5627 5624 5623 5620 5617 5613 5608 5603 5593 5591 5582 5579 5577 5581 5593 5594 5600 5604 5615 5624 5629 5636 5645 5652 5659 5668 5676 5681 5685 5691 5695 5698 5701 5704 5706 5708 5709 5710 5710 5710 5710 5709 5707
5620 5619 5619 5615 5613 5609 5602 5599 5594 5588 5579 5572 5568 5567 5568 5578 5578 5585 5589 5602 5611 5618 5625 5635 5642 5649 5658 5666 5673 5678 5682 5687 5691 5693 5697 5699 5701 5702 5703 5703 5702 5701 5700 5698
5612 5614 5614 5610 5605 5599 5594 5591 5586 5579 5573 5564 5558 5556 5559 5562 5567 5572 5576 5585 5597 5606 5614 5625 5633 5642 5651 5658 5664 5670 5675 5680 5684 5687 5690 5692 5694 5694 5694 5695 5694 5693 5691 5689
5606 5605 5605 5602 5597 5592 5587 5583 5578 5569 5565 5556 5550 5542 5552 5552 5553 5558 5565 5573 5583 5595 5605 5617 5626 5635 5643 5651 5656 5661 5667 5673 5677 5681 5683 5685 5686 5687 5687 5687 5686 5684 5682 5680
5602 5599 5596 5596 5594 5587 5579 5575 5568 5560 5554 5548 5543 5544 5540 5542 5544 5548 5554 5560 5574 5587 5598 5610 5620 5628 5636 5643 5649 5656 5661 5665 5670 5673 5676 5678 5679 5680 5680 5679 5678 5676 5674 5670
5596 5594 5591 5589 5585 5578 5570 5564 5557 5549 5543 5543 5534 5533 5530 5531 5535 5538 5548 5556 5568 5582 5593 5605 5615 5623 5630 5636 5643 5650 5655 5659 5663 5666 5669 5671 5672 5672 5672 5671 5669 5667 5664 5661
5592 5591 5588 5585 5581 5575 5566 5559 5551 5544 5540 5536 5531 5525 5524 5530 5537 5544 5548 5556 5566 5581 5592 5601 5611 5618 5625 5632 5639 5645 5649 5653 5656 5660 5662 5664 5665 5665 5664 5662 5661 5658 5654 5650
5588 5589 5587 5583 5578 5571 5562 5555 5547 5543 5539 5536 5531 5528 5529 5534 5540 5545 5552 5560 5570 5581 5591 5600 5607 5614 5621 5629 5635 5640 5644 5648 5651 5653 5656 5657 5658 5657 5656 5654 5651 5648 5645 5641
5588 5588 5585 5582 5576 5569 5562 5554 5550 5546 5539 5537 5536 5537 5537 5541 5547 5553 5560 5567 5574 5581 5590 5599 5606 5613 5620 5625 5630 5635 5639 5642 5645 5648 5650 5651 5651 5650 5648 5645 5642 5639 5635 5630
5587 5586 5583 5580 5574 5568 5563 5559 5554 5551 5548 5543 5543 5545 5548 5551 5556 5561 5567 5573 5579 5585 5593 5600 5606 5612 5618 5623 5627 5632 5636 5638 5642 5643 5644 5644 5643 5642 5639 5636 5633 5630 5625 5620
5586 5585 5583 5580 5574 5573 5568 5564 5561 5559 5556 5554 5554 5554 5555 5558 5562 5568 5573 5577 5582 5587 5594 5601 5606 5611 5616 5621 5625 5629 5631 5634 5636 5637 5637 5636 5635 5633 5631 5628 5624 5619 5615 5609
5585 5583 5583 5581 5579 5575 5574 5571 5568 5566 5565 5563 5562 5562 5562 5565 5568 5573 5578 5582 5584 5589 5596 5600 5604 5608 5613 5617 5622 5624 5626 5629 5630 5630 5630 5629 5627 5625 5622 5618 5614 5609 5603 5597
5584 5584 5583 5583 5582 5580 5578 5575 5574 5574 5575 5569 5569 5570 5571 5573 5575 5579 5583 5586 5590 5595 5598 5602 5605 5609 5612 5615 5618 5620 5622 5623 5624 5624 5623 5622 5619 5616 5613 5609 5603 5598 5593 5586
5583 5583 5583 5583 5582 5583 5581 5581 5580 5577 5575 5575 5576 5578 5578 5579 5582 5584 5587 5590 5593 5594 5597 5601 5603 5606 5610 5613 5615 5616 5617 5618 5618 5617 5616 5614 5611 5607 5603 5598 5593 5587 5582 5575
5583 5582 5582 5582 5582 5583 5582 5582 5582 5581 5581 5580 5579 5579 5580 5582 5586 5588 5591 5592 5594 5596 5599 5601 5604 5606 5609 5610 5611 5612 5612 5612 5612 5610 5608 5605 5601 5597 5593 5588 5583 5577 5570 5564
5580 5581 5582 5583 5582 5582 5582 5582 5583 5583 5582 5583 5583 5583 5584 5585 5586 5587 5589 5591 5593 5596 5598 5600 5602 5604 5605 5606 5606 5606 5607 5606 5605 5603 5600 5596 5592 5588 5583 5578 5572 5566 5559 5552
5577 5578 5581 5581 5580 5581 5581 5582 5583 5583 5584 5584 5584 5585 5585 5585 5586 5588 5589 5591 5592 5595 5596 5598 5600 5601 5601 5601 5602 5602 5601 5600 5597 5595 5591 5588 5583 5579 5573 5568 5561 5554 5548 5541
5572 5575 5579 5580 5579 5580 5581 5581 5582 5582 5583 5584 5584 5585 5586 5587 5587 5588 5590 5591 5593 5594 5595 5596 5596 5597 5597 5597 5597 5596 5594 5592 5589 5586 5583 5579 5574 5569 5563 5557 5551 5545 5538 5530